Satellite: MET-3/5
Catalog number: 21655
Epoch time:      10160.58333194
Element set:    0834
Inclination:      082.5563 deg
RA of node:       314.0070 deg
Eccentricity:    0.0013649
Arg of perigee:   014.3565 deg
Mean anomaly:     345.7893 deg
Mean motion:   13.17022209 rev/day
Decay rate:        5.1e-07 rev/day^2
Epoch rev:           90467
Checksum:              286

Satellite: MET-2/21
Catalog number: 22782
Epoch time:      10160.77097986
Element set:    0799
Inclination:      082.5481 deg
RA of node:       258.3230 deg
Eccentricity:    0.0023817
Arg of perigee:   065.4265 deg
Mean anomaly:     294.9383 deg
Mean motion:   13.83646254 rev/day
Decay rate:       -1.3e-07 rev/day^2
Epoch rev:           84705
Checksum:              332

Satellite: OKEAN-4
Catalog number: 23317
Epoch time:      10161.70854430
Element set:     255
Inclination:      082.5412 deg
RA of node:       359.9085 deg
Eccentricity:    0.0020395
Arg of perigee:   263.5111 deg
Mean anomaly:     096.3779 deg
Mean motion:   14.82823402 rev/day
Decay rate:        1.3e-07 rev/day^2
Epoch rev:           84549
Checksum:              291

Satellite: NOAA-14
Catalog number: 23455
Epoch time:      10160.92332641
Element set:    0086
Inclination:      098.8780 deg
RA of node:       241.7168 deg
Eccentricity:    0.0008513
Arg of perigee:   255.4470 deg
Mean anomaly:     104.5753 deg
Mean motion:   14.13787095 rev/day
Decay rate:       -4.4e-07 rev/day^2
Epoch rev:           79647
Checksum:              312

Satellite: NOAA-15
Catalog number: 25338
Epoch time:      10160.71026653
Element set:    0405
Inclination:      098.6180 deg
RA of node:       147.7687 deg
Eccentricity:    0.0011781
Arg of perigee:   095.6550 deg
Mean anomaly:     264.5957 deg
Mean motion:   14.24832497 rev/day
Decay rate:       2.19e-06 rev/day^2
Epoch rev:           62768
Checksum:              327

Satellite: RESURS
Catalog number: 25394
Epoch time:      10160.69007065
Element set:    0526
Inclination:      098.3045 deg
RA of node:       179.1772 deg
Eccentricity:    0.0000423
Arg of perigee:   222.2818 deg
Mean anomaly:     137.8323 deg
Mean motion:   14.24202344 rev/day
Decay rate:       -6.0e-08 rev/day^2
Epoch rev:           61928
Checksum:              271

Satellite: FENGYUN1
Catalog number: 25730
Epoch time:      10160.84493106
Element set:      62
Inclination:      098.7860 deg
RA of node:       125.9921 deg
Eccentricity:    0.0022489
Arg of perigee:   294.4159 deg
Mean anomaly:     065.4614 deg
Mean motion:   14.08197170 rev/day
Decay rate:      -6.05e-06 rev/day^2
Epoch rev:           57065
Checksum:              303

Satellite: OKEAN-0
Catalog number: 25860
Epoch time:      10160.53973439
Element set:    0015
Inclination:      097.8311 deg
RA of node:       133.4975 deg
Eccentricity:    0.0001812
Arg of perigee:   086.3837 deg
Mean anomaly:     273.7575 deg
Mean motion:   14.73643602 rev/day
Decay rate:        6.3e-07 rev/day^2
Epoch rev:           58577
Checksum:              310

Satellite: NOAA-16
Catalog number: 26536
Epoch time:      10160.71811034
Element set:    0882
Inclination:      099.1700 deg
RA of node:       178.0110 deg
Eccentricity:    0.0010624
Arg of perigee:   003.8563 deg
Mean anomaly:     356.2663 deg
Mean motion:   14.12561940 rev/day
Decay rate:       -8.5e-07 rev/day^2
Epoch rev:           50077
Checksum:              270

Satellite: NOAA-17
Catalog number: 27453
Epoch time:      10160.90026208
Element set:    0885
Inclination:      098.4320 deg
RA of node:       211.6370 deg
Eccentricity:    0.0012190
Arg of perigee:   154.2926 deg
Mean anomaly:     205.8852 deg
Mean motion:   14.24163911 rev/day
Decay rate:        3.3e-07 rev/day^2
Epoch rev:           41366
Checksum:              272

Satellite: NOAA-18
Catalog number: 28654
Epoch time:      10160.92746329
Element set:    0369
Inclination:      098.9495 deg
RA of node:       107.2121 deg
Eccentricity:    0.0015361
Arg of perigee:   074.7500 deg
Mean anomaly:     285.5396 deg
Mean motion:   14.11360966 rev/day
Decay rate:       -6.9e-07 rev/day^2
Epoch rev:           26041
Checksum:              314

Satellite: NOAA-19
Catalog number: 33591
Epoch time:      10160.91384891
Element set:    0566
Inclination:      098.7874 deg
RA of node:       103.1888 deg
Eccentricity:    0.0013395
Arg of perigee:   313.1838 deg
Mean anomaly:     046.8253 deg
Mean motion:   14.11057708 rev/day
Decay rate:        1.2e-07 rev/day^2
Epoch rev:           06888
Checksum:              325

/EX
SB KEPS @ AMSAT  $ORB10161.M
Orbital Elements  10161.MISC

HR AMSAT ORBITAL ELEMENTS FOR MANNED AND MISCELLANEOUS SATELLITES
FROM WA5QGD FORT WORTH,TX June 10, 2010
Send Subscribe/unsubscribe to KEPS at http://www.amsat.org/mailman/listinfo/kep
BID: ORB10161.M
TO ALL RADIO AMATEURS BT

Satellite: HUBBLE
Catalog number: 20580
Epoch time:      10160.79995157
Element set:     582
Inclination:      028.4719 deg
RA of node:       288.0856 deg
Eccentricity:    0.0003457
Arg of perigee:   118.4019 deg
Mean anomaly:     241.6867 deg
Mean motion:   15.00984670 rev/day
Decay rate:       4.18e-06 rev/day^2
Epoch rev:           90364
Checksum:              319

